DW6111 Rossendale UK current weather conditions

sailwx.info

Wind from 246 at 0 knots gusting 4

Air temperature 14.4° C
Dewpoint 13.0° C

Last reported at 2020-Aug-15 07:00 UTC.
Time now 2020-Aug-15 07:56 UTC

Location: N 53°40' W 002°10'.
View on Google Maps.

See reports from other nearby stations

  
Tides and Currents Weather Stations Pressure Air Temp Water Temp Dewpoint Dewpoint Depression Visibility Wind Speed Wind Dir Waves Ship Positions
date/time (UTC)wind fromknots sea level pressurealtimeterstation pressurevisibilityair tempwater tempwave heightnotes
2020-Aug-15 07:00 246 0 gusting 4 14.4
2020-Aug-15 06:45 244 13.9
2020-Aug-15 06:30 273 0 gusting 3 13.9
2020-Aug-15 06:16 263 1 gusting 3 13.9
2020-Aug-15 06:00 266 0 gusting 3 13.3
2020-Aug-15 05:45 232 0 gusting 5 13.3
2020-Aug-15 05:30 314 1 gusting 5 13.3
2020-Aug-15 05:15 279 0 gusting 4 13.3
2020-Aug-15 05:00 269 1 gusting 4 13.3
2020-Aug-15 04:45 254 0 gusting 3 13.3
2020-Aug-15 04:30 276 1 gusting 4 13.3
2020-Aug-15 04:15 248 0 gusting 3 13.3
2020-Aug-15 04:00 268 0 gusting 3 13.3
2020-Aug-15 03:45 289 13.9
2020-Aug-15 03:30 229 0 gusting 3 13.9
2020-Aug-15 03:15 059 0 gusting 2 13.9
2020-Aug-15 03:00 280 0 gusting 2 13.9
2020-Aug-15 02:45 264 0 gusting 2 13.9
2020-Aug-15 02:30 260 0 gusting 4 13.9
2020-Aug-15 02:15 297 0 gusting 3 13.3
2020-Aug-15 02:00 313 0 gusting 3 13.9
2020-Aug-15 01:45 309 13.9
2020-Aug-15 01:17 272 0 gusting 3 13.3
2020-Aug-15 01:01 268 13.3
2020-Aug-15 00:46 279 0 gusting 2 13.3
2020-Aug-15 00:31 294 0 gusting 5 13.3
2020-Aug-15 00:16 318 0 gusting 6 13.9
2020-Aug-15 00:02 190 0 gusting 3 13.9
2020-Aug-14 23:46 237 0 gusting 4 13.9
2020-Aug-14 23:31 342 13.9
2020-Aug-14 23:17 263 14.4
2020-Aug-14 23:01 248 14.4
2020-Aug-14 22:46 115 0 gusting 3 14.4
2020-Aug-14 22:31 091 0 gusting 4 14.4
2020-Aug-14 22:16 240 0 gusting 3 14.4
2020-Aug-14 22:01 250 0 gusting 3 15.0
2020-Aug-14 21:46 327 0 gusting 2 15.0
2020-Aug-14 21:32 276 15.0
2020-Aug-14 21:16 289 15.0
2020-Aug-14 21:01 314 0 gusting 7 15.0
2020-Aug-14 20:45 243 1 gusting 5 15.6
2020-Aug-14 20:30 300 15.6
2020-Aug-14 20:15 267 0 gusting 3 15.6
2020-Aug-14 20:01 262 0 gusting 3 16.1
2020-Aug-14 19:45 238 0 gusting 3 16.1
2020-Aug-14 19:31 193 0 gusting 3 16.7
2020-Aug-14 19:16 252 0 gusting 3 17.2
2020-Aug-14 19:00 289 17.2
2020-Aug-14 18:46 285 0 gusting 4 18.3
2020-Aug-14 18:31 313 0 gusting 3 18.9
2020-Aug-14 18:17 327 19.4
2020-Aug-14 18:00 307 0 gusting 5 20.0
2020-Aug-14 17:45 282 0 gusting 4 20.6
2020-Aug-14 17:30 304 0 gusting 3 21.1
2020-Aug-14 17:15 287 1 gusting 4 21.7
2020-Aug-14 17:00 229 1 gusting 3 22.2
2020-Aug-14 16:45 277 1 gusting 3 22.2
2020-Aug-14 16:30 269 0 gusting 4 22.2
2020-Aug-14 16:16 316 1 gusting 5 22.2
2020-Aug-14 16:00 340 0 gusting 4 22.2
2020-Aug-14 15:45 289 0 gusting 4 21.7
2020-Aug-14 15:30 305 0 gusting 3 21.1
2020-Aug-14 15:15 281 0 gusting 5 20.6
2020-Aug-14 15:00 316 0 gusting 4 20.6
2020-Aug-14 14:45 345 20.6
2020-Aug-14 14:30 310 0 gusting 5 20.6
2020-Aug-14 14:15 295 1 gusting 4 21.1
2020-Aug-14 14:00 299 0 gusting 4 20.0
2020-Aug-14 13:45 311 0 gusting 5 21.1
2020-Aug-14 13:30 316 0 gusting 5 21.1
2020-Aug-14 13:15 283 0 gusting 4 20.6
2020-Aug-14 13:00 238 0 gusting 4 21.1
2020-Aug-14 12:47 269 1 gusting 6 21.1
2020-Aug-14 12:32 273 1 gusting 4 20.6
2020-Aug-14 12:17 236 1 gusting 4 20.0
2020-Aug-14 12:02 319 0 gusting 6 20.6
2020-Aug-14 11:47 315 0 gusting 5 20.6
2020-Aug-14 11:31 274 1 gusting 5 20.0
2020-Aug-14 11:16 302 0 gusting 4 18.3
2020-Aug-14 11:01 297 1 gusting 4 18.3
2020-Aug-14 10:46 300 1 gusting 4 17.8
2020-Aug-14 10:31 312 0 gusting 5 16.7
2020-Aug-14 10:15 321 0 gusting 6 16.1
2020-Aug-14 10:01 243 0 gusting 4 15.6
2020-Aug-14 09:46 250 15.6
2020-Aug-14 09:31 302 1 gusting 4 15.6
2020-Aug-14 09:16 311 0 gusting 2 15.6
2020-Aug-14 09:00 298 0 gusting 4 15.6
2020-Aug-14 08:46 287 15.0
2020-Aug-14 08:30 298 0 gusting 3 15.0
2020-Aug-14 08:15 283 0 gusting 4 15.0
2020-Aug-14 08:01 283 0 gusting 3 14.4
2020-Aug-14 07:45 283 0 gusting 4 14.4
2020-Aug-14 07:30 315 1 gusting 5 14.4
2020-Aug-14 07:15 087 0 gusting 3 13.9
2020-Aug-14 07:00 121 0 gusting 4 13.9
2020-Aug-14 06:45 288 0 gusting 4 13.9
2020-Aug-14 06:30 254 0 gusting 2 13.9
2020-Aug-14 06:15 357 0 gusting 6 13.9
2020-Aug-14 06:00 187 13.9
2020-Aug-14 05:45 094 0 gusting 5 13.9
2020-Aug-14 05:30 176 13.9
2020-Aug-14 05:15 314 0 gusting 4 13.9
2020-Aug-14 05:00 310 13.9
2020-Aug-14 04:45 303 0 gusting 3 13.9
2020-Aug-14 04:30 315 13.9
2020-Aug-14 04:01 276 1 gusting 4 13.9
2020-Aug-14 03:47 082 1 gusting 4 13.9
2020-Aug-14 03:32 113 0 gusting 5 13.9
2020-Aug-14 03:17 017 0 gusting 6 13.9
2020-Aug-14 03:02 292 1 gusting 5 13.9
2020-Aug-14 02:47 152 0 gusting 6 13.9
2020-Aug-14 02:31 086 0 gusting 5 13.9
2020-Aug-14 02:16 240 0 gusting 6 13.9
2020-Aug-14 02:01 247 0 gusting 5 13.9
2020-Aug-14 01:46 260 0 gusting 3 13.9
2020-Aug-14 01:31 269 13.9
2020-Aug-14 01:16 197 13.9
2020-Aug-14 01:01 294 1 gusting 6 13.9
2020-Aug-14 00:47 284 1 gusting 3 13.9
2020-Aug-14 00:17 008 1 gusting 6 13.9
2020-Aug-14 00:01 285 1 gusting 6 13.9
2020-Aug-13 23:02 254 0 gusting 3 14.4
2020-Aug-13 22:46 252 0 gusting 5 14.4
2020-Aug-13 22:31 217 0 gusting 3 14.4
2020-Aug-13 22:16 299 1 gusting 5 14.4
2020-Aug-13 21:46 258 1 gusting 6 14.4
2020-Aug-13 21:31 264 1 gusting 5 14.4
2020-Aug-13 21:15 328 1 gusting 6 14.4
2020-Aug-13 21:02 253 1 gusting 6 14.4
2020-Aug-13 20:45 335 2 gusting 6 14.4
2020-Aug-13 20:30 271 1 gusting 5 15.0
2020-Aug-13 20:15 267 2 gusting 6 15.0
2020-Aug-13 20:00 227 0 gusting 4 15.0
2020-Aug-13 19:45 282 0 gusting 4 15.0
2020-Aug-13 19:30 251 15.0
2020-Aug-13 19:15 295 2 gusting 5 15.6
2020-Aug-13 19:00 237 1 gusting 6 15.6
2020-Aug-13 18:46 231 0 gusting 5 16.1
2020-Aug-13 18:31 004 1 gusting 5 16.1
2020-Aug-13 18:16 248 0 gusting 3 16.1
2020-Aug-13 18:03 295 0 gusting 3 16.1
2020-Aug-13 17:46 197 0 gusting 3 16.7
2020-Aug-13 17:31 299 0 gusting 4 17.2
2020-Aug-13 17:16 302 17.2
2020-Aug-13 17:01 146 0 gusting 3 17.2
2020-Aug-13 16:46 304 0 gusting 7 17.2
2020-Aug-13 16:31 246 1 gusting 6 17.8
2020-Aug-13 16:16 269 1 gusting 5 18.3
2020-Aug-13 16:01 333 2 gusting 6 18.3
2020-Aug-13 15:46 295 1 gusting 6 17.2
2020-Aug-13 15:32 058 2 gusting 6 17.8
2020-Aug-13 15:16 302 1 gusting 4 17.8
2020-Aug-13 15:01 262 1 gusting 6 17.2
2020-Aug-13 14:46 252 0 gusting 5 17.2
2020-Aug-13 14:31 163 0 gusting 5 17.2
2020-Aug-13 14:15 302 17.2
2020-Aug-13 14:01 286 1 gusting 5 17.8
2020-Aug-13 13:46 306 1 gusting 5 17.8
2020-Aug-13 13:32 034 0 gusting 3 17.8
2020-Aug-13 13:15 277 2 gusting 6 18.3
2020-Aug-13 13:01 076 1 gusting 5 18.9
2020-Aug-13 12:45 274 0 gusting 8 20.0
2020-Aug-13 12:30 289 1 gusting 6 20.6
2020-Aug-13 12:16 297 1 gusting 6 20.6
2020-Aug-13 12:00 233 1 gusting 6 20.0
2020-Aug-13 11:45 303 0 gusting 9 19.4
2020-Aug-13 11:31 356 1 gusting 7 18.3
2020-Aug-13 11:15 243 1 gusting 5 18.3
2020-Aug-13 11:01 210 1 gusting 6 17.8
2020-Aug-13 10:45 314 2 gusting 6 18.3
2020-Aug-13 10:30 303 2 gusting 6 19.4
2020-Aug-13 10:15 269 1 gusting 7 18.9
2020-Aug-13 10:00 257 18.3
2020-Aug-13 09:46 085 2 gusting 9 18.3
2020-Aug-13 09:30 354 1 gusting 5 19.4
2020-Aug-13 09:15 230 1 gusting 6 18.9
2020-Aug-13 09:00 282 2 gusting 6 18.3
2020-Aug-13 08:46 258 1 gusting 5 17.8
2020-Aug-13 08:30 345 1 gusting 6 17.8
2020-Aug-13 08:15 293 1 gusting 5 17.8
2020-Aug-13 08:00 327 2 gusting 7 17.8
2020-Aug-13 07:45 276 1 gusting 6 17.8
2020-Aug-13 07:30 301 1 gusting 6 17.8
2020-Aug-13 07:15 329 2 gusting 6 17.2
2020-Aug-13 07:00 324 1 gusting 6 17.2